COSMOS 2201

Satellite information

Favourite Embed

Satellite Type and Status

PAYLOADIN ORBIT

Key statistics

Satellite COSMOS 2201 at a glance.

Uptime

12211

Days in orbit

Revolutions

≈ 12.6

Per day

Orbit

LEO

Low Earth Orbit

Inclination

82.6

Latest

Satellite identification and parameters

Extended collection of information and parameters for COSMOS 2201.

Object identification

Identified? True

Debris? False

Object name: COSMOS 2201

International designator: 1992-042E

Object number (NORAD): 22038

Object ID (CCSDS): 22038

Country: COMMONWEALTH OF INDEPENDENT STATES (CIS)

Current information (Y/N): Y

RCS size: LARGE

Orbital parameters

Period: 114.124 minutes

Inclination: 82.5914 deg

SMA: 7793.739 km

Apoapsis: 1422.682 km

Periapsis: 1408.526 km

RAAN: 16.653 deg

Eccentricy: 0.00090815

Argument of periapsis: 19.579 deg

Mean anomaly: 99.3472 deg

Mean motion: 12.61781052 rev/day

Mean motion (dot): 0.00000036 rev/day2

B* drag term: 0.00014033093 1/REarth

Two-line elements (TLE)

Creation date: Dec. 17, 2025, 2:25 a.m.

Reference frame: TEME

Reference center: EARTH

Epoch: Dec. 16, 2025, 2:56 p.m. UTC

TLE line 0: 0 COSMOS 2201

TLE line 1: 1 22038U 92042E 25350.62286584 .00000036 00000-0 14033-3 0 9991

TLE line 2: 2 22038 82.5914 16.6530 0009081 19.5790 99.3472 12.61781052539279

Live tracking on map

Real-time ground track for satellite COSMOS 2201.

In-orbit conjunctions

A list of the most updated potential collisions computed for object COSMOS 2201.

Target Orbit TCA Probability of collision Miss distance Type
SL-14 R/B LEO 2025-07-02 05:37:30 0.0002457806 70.0 (m) ROCKET BODY
BREEZE-KM DEB LEO 2025-03-15 21:55:10 0.0001603613 745.0 (m) DEBRIS
DELTA 1 DEB SSO 2025-03-02 19:52:03 0.0004731766 72.0 (m) DEBRIS

Associated space launch

Second generation store-dump military communications satellite

COSMOS 2201 was lifted into orbit during the mission ‘Tsiklon-3 | Strela-3 79 to 82’, on board a Tsiklon-3 space rocket.

The launch took place on July 13, 1992, 5:41 p.m. from 32/1.

For more information about the launch, click the button.

Launch to space Tsiklon-3 | Strela-3 79 to 82
Tsiklon-3 | Strela-3 79 to 82

Agency: N/A

Status: Launch Successful

Launch date: July 13, 1992, 5:41 p.m. UTC

Rocket: Tsiklon-3

Launch pad: 32/1

Location: Plesetsk Cosmodrome, Russian Federation

...

Latest news about this satellite

There are no fresh news available about this satellite. Check back as we update our databases every day.


Newsletter sign-up

Weekly statistics, charts and insights to help you stay on top of the space industry.